IRIDIUM 118

Last updated on Tue Sep 22 2026 00:03:21 GMT+0000 (Coordinated Universal Time)

1 42807U 17039E 26264.38480429 .00000107 00000+0 31183-4 0 9996 2 42807 86.3970 313.4455 0002184 93.9879 266.1566 14.34216082483739
UTC large
Height (km)
Speed (km/s)
/
Latitude / Longitude
Inclination (degrees)
Orbital Period (minutes)
Azimuth
Elevation
Range (km)
Doppler Factor

Next 0 passes for location: London (51.5072 / 0.1276)

No passes found over London.
IRIDIUM 118